Regional Weather Roundup
Issued by NWS

Home | Current Version | Previous Version | Graphics & Text | Print | Product List | Glossary On
Versions: 1 2 3 4 5 6 7 8 9 10 11 12 13 14 15 16 17 18 19 20 21 22 23 24 25 26 27 28 29 30 31 32 33 34 35 36 37 38 39 40 41 42 43 44 45 46 47 48 49 50
000
ASUS43 KDMX 230407
RWRIA

WEATHER ROUNDUP FOR IOWA
NATIONAL WEATHER SERVICE DES MOINES IA
1100 PM CDT FRI AUG 22 2014

NOTE: "FAIR" INDICATES FEW OR NO CLOUDS BELOW 12,000 FEET WITH NO
SIGNIFICANT WEATHER AND/OR OBSTRUCTIONS TO VISIBILITY.

* - THESE STATIONS ARE NOT NWS STATIONS...THUS NOT UNDER NWS
QUALITY CONTROL.  THEY ALSO DO NOT REPORT WEATHER SUCH
AS PRECIPITATION OR FOG.

IAZ001>003-012>014-020>022-031>034-043>046-230500-
   NORTHWEST IOWA

CITY           SKY/WX    TMP DP  RH WIND       PRES   REMARKS
CARROLL *      PTCLDY    72  72 100 NE3       29.95F
CHEROKEE *     CLOUDY    75  73  94 CALM      29.98R
DENISON *      PTCLDY    72  72 100 CALM      29.95R
LE MARS *      MOCLDY    77  73  88 NE6       29.98R
ORANGE CITY *  CLEAR     75  70  83 E7        29.99S
SHELDON *      CLEAR     72  70  94 NE7       29.97F
SIOUX CITY     CLOUDY    77  72  84 CALM      29.96R
SPENCER        CLOUDY    74  69  85 NE9       29.99S
STORM LAKE *   PTCLDY    73  73 100 E6        30.00R
$$

IAZ055>058-069>071-079>083-090>094-230500-
   SOUTHWEST IOWA

CITY           SKY/WX    TMP DP  RH WIND       PRES   REMARKS
ATLANTIC *     PTCLDY    73  72  94 N3        29.95F
AUDUBON *      CLEAR     73  72  94 CALM      29.97F
CLARINDA *     PTCLDY    75  73  94 NE5       29.95R
COUNCIL BLFS * CLEAR     75  75 100 NE5       29.94S
CRESTON *      CLEAR     75  73  94 CALM      29.96S
HARLAN  *      CLEAR     73  73 100 CALM      29.99F
LAMONI         PTCLDY    77  75  93 CALM      29.94F
RED OAK *      CLEAR     75  72  88 CALM      29.93F
SHENANDOAH *   CLEAR     75  72  88 NE6       29.93R
$$

IAZ047>049-059>061-072>074-084-230500-
   CENTRAL IOWA

CITY           SKY/WX    TMP DP  RH WIND       PRES   REMARKS
AMES           CLOUDY    78  76  93 N7        29.94S FOG     HX  81
ANKENY *       CLEAR     77  75  94 CALM      29.92S
CHARITON *     CLEAR     77  75  94 CALM      29.94F FOG
DES MOINES     CLOUDY    78  74  87 CALM      29.92S HX  81
GRINNELL*      CLOUDY    75  73  94 NE6       29.95S
KNOXVILLE *    CLEAR     79  77  94 SE3       29.92S HX  83
MARSHALLTOWN   LGT RAIN  78  75  90 E5        29.95R HX  81
PELLA *        MOCLDY    79  77  94 E3        29.94S FOG     HX  83
PERRY *          N/A     75  73  94 NW3       29.95R FOG
$$

IAZ004>006-015-016-023>025-035-036-230500-
   NORTH CENTRAL IOWA

CITY           SKY/WX    TMP DP  RH WIND       PRES   REMARKS
ALGONA *       PTCLDY    75  72  88 NE7       29.98S
CLARION *      CLOUDY    73  72  94 CALM      29.97S
ESTHERVILLE    MOCLDY    72  70  93 N10       29.98F
FORT DODGE *   CLOUDY    72  70  94 CALM      29.97S
MASON CITY     CLOUDY    74  71  91 NE6       29.98F
FOREST CITY *  CLEAR     73  70  88 NE9       29.98F
IOWA FALLS *   MOCLDY    75  73  94 CALM      29.97S
$$

IAZ007>011-017>019-026>030-037>042-050>054-066-230500-
   NORTHEAST IOWA

CITY           SKY/WX    TMP DP  RH WIND       PRES   REMARKS
CEDAR RAPIDS   MOCLDY    76  75  97 E3        29.95F
CHARLES CITY * CLEAR     75  72  88 NE8       29.98S
CLINTON *      PTCLDY    75  73  94 NE3       29.98F
DECORAH *      CLOUDY    75  72  88 NE5       29.98S
DUBUQUE        CLOUDY    76  75  97 S6        29.97F
MONTICELLO *   PTCLDY    75  72  88 CALM      29.96F
OELWEIN *      MOCLDY    77  68  73 NE6       29.97S
WATERLOO       CLOUDY    75  72  90 N3        29.95R
$$

IAZ064-065-067-068-078-230500-
   EAST CENTRAL IOWA

CITY           SKY/WX    TMP DP  RH WIND       PRES   REMARKS
DAVENPORT      PTCLDY    75  72  90 E5        29.96F
IOWA CITY      PTCLDY    77  75  93 CALM      29.95F
MT. PLEASANT * CLEAR     77  75  94 E6        29.94F FOG
MUSCATINE *    CLOUDY    77  75  94 CALM      29.94F
QUAD CITIES    CLEAR     74  71  91 SE5       29.95F
$$

IAZ062-063-075>077-085>089-095>099-230500-
   SOUTHEAST IOWA

CITY           SKY/WX    TMP DP  RH WIND       PRES   REMARKS
BURLINGTON     CLEAR     79  77  94 CALM      29.95F HX  83
FAIRFIELD *    CLEAR     77  75  94 E5        29.95S
FORT MADISON * CLEAR     79  79 100 CALM      29.96S FOG     HX  83
KEOKUK *       CLEAR     77  77 100 E3        29.94S FOG
OSKALOOSA *      N/A     77  75  94 E6        29.94S FOG
CENTERVILLE *  CLEAR     75  75 100 SE3       29.95F
OTTUMWA        PTCLDY    77  76  96 SE3       29.94S FOG
WASHINGTON *   PTCLDY    75  75 100 E6        29.95S
$$

ABBREVIATIONS USED IN REMARKS
   TC - TEMPERATURES IN CELSIUS
  WCI - WIND CHILL INDEX
   HX - HEAT INDEX
  VSB - VISIBILITY
$$



USA.gov is the U.S. government's official web portal to all federal, state and local government web resources and services.